SES-10

Last updated on Tue Sep 22 2026 00:03:14 GMT+0000 (Coordinated Universal Time)

1 42432U 17017A 26264.54713762 .00000000 00000+0 00000+0 0 9994 2 42432 0.0149 139.6237 0002740 43.7293 307.1559 1.00267430 34722
UTC large
Height (km)
Speed (km/s)
/
Latitude / Longitude
Inclination (degrees)
Orbital Period (minutes)
Azimuth
Elevation
Range (km)
Doppler Factor

Next 0 passes for location: London (51.5072 / 0.1276)

No passes found over London.
SES-10